Weather History for Land O' Lakes, WI

Change the Weather History Date:

Friday, March 15, 2013

  Actual Average (KEGV) Record (KEGV)
Temperature  
Mean Temperature 22 °F -  
Max Temperature 32 °F 33 °F 64 °F (2012)
Min Temperature 12 °F 9 °F -10 °F (1993)
Degree Days  
Heating Degree Days 43    
Moisture  
Dew Point 17 °F    
Average Humidity 72    
Maximum Humidity 92    
Minimum Humidity 51    
Precipitation  
Precipitation 0.00 in - - ()
Sea Level Pressure  
Sea Level Pressure 29.90 in    
Wind  
Wind Speed 8 mph (North)    
Max Wind Speed 14 mph    
Max Gust Speed 22 mph    
Visibility 8 miles    
Events Snow    
Averages and records for this station are not official NWS values.
T = Trace of Precipitation, MM = Missing Value Source: NWS Daily Summary

Daily Weather History Graph

Daily Weather History Graph

Search for Another Location

Airport:

Trip Planner

Search our weather history database for the weather conditions in past years. The results will help you decide how hot, cold, wet, or windy it might be!

Date:

Astronomy

Mar. 15, 2013 Rise Set
Actual Time 7:09 AM CDT 7:03 PM CDT
Civil Twilight 6:39 AM CDT 7:32 PM CDT
Nautical Twilight 6:04 AM CDT 8:07 PM CDT
Astronomical Twilight 5:28 AM CDT 8:43 PM CDT
Moon 8:44 AM CDT (3/15) 11:33 PM CDT (3/15)
Length of Visible Light 12h 53m
Length of Day
11h 54m
Waxing Crescent, 15% of the Moon is Illuminated
Mar 15
Waxing Crescent
Mar 19
First Quarter
Mar 27
Full
Apr 2
Last Quarter
Apr 10
New

Hourly Weather History & Observations

Time (CDT) Temp. Windchill Dew Point Humidity Pressure Visibility Wind Dir Wind Speed Gust Speed Precip Events Conditions
12:15 AM 32.0 °F 24.8 °F 26.6 °F 80% 29.91 in 10.0 mi West 8.1 mph - N/A   Overcast
12:35 AM 32.0 °F 27.5 °F 26.6 °F 80% 29.91 in 10.0 mi West 4.6 mph - N/A   Overcast
12:55 AM 32.0 °F 24.8 °F 26.6 °F 80% 29.90 in 10.0 mi West 8.1 mph - N/A   Overcast
1:15 AM 32.0 °F 26.4 °F 26.6 °F 80% 29.90 in 10.0 mi West 5.8 mph - N/A   Overcast
1:35 AM 32.0 °F 26.4 °F 26.6 °F 80% 29.89 in 10.0 mi West 5.8 mph - N/A   Overcast
1:55 AM 32.0 °F 25.6 °F 26.6 °F 80% 29.89 in 7.0 mi West 6.9 mph - N/A   Overcast
2:15 AM 32.0 °F 26.4 °F 26.6 °F 80% 29.89 in 10.0 mi West 5.8 mph - N/A   Overcast
2:35 AM 32.0 °F 26.4 °F 26.6 °F 80% 29.88 in 10.0 mi West 5.8 mph - N/A   Overcast
2:55 AM 32.0 °F 26.4 °F 26.6 °F 80% 29.88 in 10.0 mi West 5.8 mph - N/A   Overcast
3:15 AM 32.0 °F 27.5 °F 26.6 °F 80% 29.87 in 10.0 mi West 4.6 mph - N/A   Overcast
3:55 AM 32.0 °F 27.5 °F 26.6 °F 80% 29.86 in 10.0 mi WNW 4.6 mph - N/A   Overcast
4:15 AM 32.0 °F 27.5 °F 26.6 °F 80% 29.85 in 10.0 mi NW 4.6 mph - N/A   Overcast
4:35 AM 32.0 °F 24.2 °F 28.4 °F 87% 29.85 in 10.0 mi North 9.2 mph - N/A   Overcast
4:55 AM 30.2 °F 22.6 °F 26.6 °F 86% 29.86 in 10.0 mi North 8.1 mph - N/A   Overcast
5:15 AM 30.2 °F 20.8 °F 26.6 °F 86% 29.87 in 10.0 mi North 11.5 mph 16.1 mph N/A   Overcast
5:35 AM 28.4 °F 18.5 °F 24.8 °F 86% 29.87 in 10.0 mi North 11.5 mph 17.3 mph N/A   Overcast
5:55 AM 28.4 °F 20.4 °F 24.8 °F 86% 29.87 in 10.0 mi North 8.1 mph - N/A   Overcast
6:15 AM 28.4 °F 20.4 °F 24.8 °F 86% 29.89 in 10.0 mi North 8.1 mph - N/A   Overcast
6:35 AM 28.4 °F 18.0 °F 23.0 °F 80% 29.90 in 10.0 mi North 12.7 mph 21.9 mph N/A   Overcast
6:55 AM 26.6 °F 16.2 °F 23.0 °F 86% 29.90 in 10.0 mi North 11.5 mph 17.3 mph N/A   Overcast
7:15 AM 26.6 °F 16.2 °F 21.2 °F 80% 29.91 in 10.0 mi North 11.5 mph 16.1 mph N/A   Overcast
7:55 AM 26.6 °F 15.2 °F 19.4 °F 74% 29.93 in 10.0 mi North 13.8 mph 19.6 mph N/A   Overcast
8:15 AM 24.8 °F 13.4 °F 19.4 °F 80% 29.93 in 10.0 mi North 12.7 mph 18.4 mph N/A   Overcast
8:35 AM 24.8 °F 15.3 °F 19.4 °F 80% 29.93 in 10.0 mi North 9.2 mph 16.1 mph N/A   Overcast
8:55 AM 24.8 °F 16.9 °F 19.4 °F 80% 29.93 in 10.0 mi NNE 6.9 mph - N/A   Overcast
9:15 AM 24.8 °F 17.9 °F 19.4 °F 80% 29.93 in 10.0 mi North 5.8 mph - N/A   Overcast
9:35 AM 24.8 °F 16.9 °F 19.4 °F 80% 29.93 in 10.0 mi North 6.9 mph - N/A   Overcast
10:55 AM 24.8 °F 14.6 °F 14.0 °F 64% 29.93 in 10.0 mi NNE 10.4 mph - N/A   Mostly Cloudy
11:15 AM 26.6 °F 16.2 °F 14.0 °F 59% 29.93 in 10.0 mi NNE 11.5 mph - N/A   Mostly Cloudy
11:35 AM 26.6 °F 19.1 °F 14.0 °F 59% 29.93 in 10.0 mi North 6.9 mph - N/A   Mostly Cloudy
11:55 AM 26.6 °F 16.2 °F 15.8 °F 64% 29.93 in 10.0 mi North 11.5 mph 18.4 mph N/A   Overcast
12:15 PM 26.6 °F 16.2 °F 17.6 °F 69% 29.93 in 10.0 mi North 11.5 mph 16.1 mph N/A   Mostly Cloudy
12:35 PM 26.6 °F 16.2 °F 15.8 °F 64% 29.93 in 10.0 mi NNE 11.5 mph - N/A   Mostly Cloudy
12:55 PM 26.6 °F 18.2 °F 14.0 °F 59% 29.92 in 10.0 mi North 8.1 mph - N/A   Mostly Cloudy
1:15 PM 26.6 °F 17.5 °F 14.0 °F 59% 29.92 in 10.0 mi North 9.2 mph 18.4 mph N/A   Mostly Cloudy
1:35 PM 28.4 °F 19.1 °F 14.0 °F 55% 29.92 in 10.0 mi North 10.4 mph - N/A   Mostly Cloudy
1:55 PM 26.6 °F 19.1 °F 14.0 °F 59% 29.91 in 10.0 mi North 6.9 mph 10.4 mph N/A   Mostly Cloudy
2:15 PM 28.4 °F 21.2 °F 14.0 °F 55% 29.91 in 10.0 mi NNW 6.9 mph 10.4 mph N/A   Overcast
2:35 PM 28.4 °F 22.2 °F 12.2 °F 51% 29.90 in 10.0 mi North 5.8 mph - N/A   Overcast
2:55 PM 28.4 °F 22.2 °F 12.2 °F 51% 29.89 in 10.0 mi NNW 5.8 mph - N/A   Overcast
3:15 PM 28.4 °F 22.2 °F 14.0 °F 55% 29.89 in 10.0 mi NNW 5.8 mph - N/A   Overcast
3:35 PM 28.4 °F 23.3 °F 12.2 °F 51% 29.89 in 10.0 mi North 4.6 mph - N/A   Overcast
3:55 PM 28.4 °F 19.7 °F 12.2 °F 51% 29.89 in 10.0 mi North 9.2 mph - N/A   Overcast
4:15 PM 28.4 °F 20.4 °F 12.2 °F 51% 29.87 in 10.0 mi NE 8.1 mph - N/A   Mostly Cloudy
4:35 PM 28.4 °F 20.4 °F 14.0 °F 55% 29.87 in 10.0 mi NE 8.1 mph - N/A   Mostly Cloudy
4:55 PM 28.4 °F 22.2 °F 14.0 °F 55% 29.87 in 10.0 mi NNE 5.8 mph - N/A   Overcast
5:15 PM 26.6 °F 20.0 °F 12.2 °F 55% 29.88 in 10.0 mi North 5.8 mph - N/A   Overcast
5:35 PM 26.6 °F 18.2 °F 12.2 °F 55% 29.87 in 10.0 mi ENE 8.1 mph - N/A   Overcast
5:55 PM 26.6 °F 18.2 °F 10.4 °F 51% 29.89 in 10.0 mi NNE 8.1 mph - N/A   Overcast
6:15 PM 24.8 °F 17.9 °F 10.4 °F 54% 29.90 in 10.0 mi NE 5.8 mph - N/A   Overcast
6:35 PM 23.0 °F 13.9 °F 10.4 °F 59% 29.90 in 10.0 mi NNE 8.1 mph - N/A   Overcast
6:55 PM 23.0 °F 14.7 °F 10.4 °F 59% 29.89 in 10.0 mi NE 6.9 mph - N/A   Overcast
7:15 PM 21.2 °F 10.9 °F 10.4 °F 63% 29.90 in 10.0 mi NNE 9.2 mph - N/A Snow Light Snow
7:35 PM 21.2 °F 10.9 °F 10.4 °F 63% 29.89 in 7.0 mi NE 9.2 mph - N/A Snow Light Snow
7:55 PM 19.4 °F 10.4 °F 10.4 °F 68% 29.91 in 5.0 mi NE 6.9 mph - N/A Snow Light Snow
8:15 PM 17.6 °F 6.4 °F 10.4 °F 73% 29.91 in 4.0 mi NE 9.2 mph - N/A Snow Light Snow
8:35 PM 17.6 °F 7.3 °F 10.4 °F 73% 29.91 in 5.0 mi NNE 8.1 mph - N/A Snow Light Snow
8:55 PM 17.6 °F 6.4 °F 10.4 °F 73% 29.91 in 3.0 mi NNE 9.2 mph - N/A Snow Light Snow
9:15 PM 15.8 °F 7.2 °F 10.4 °F 79% 29.91 in 2.5 mi NE 5.8 mph - N/A Snow Light Snow
9:35 PM 15.8 °F 6.1 °F 10.4 °F 79% 29.91 in 2.5 mi NE 6.9 mph - N/A Snow Light Snow
9:55 PM 14.0 °F 2.9 °F 10.4 °F 86% 29.91 in 2.0 mi NE 8.1 mph - N/A Snow Light Snow
10:15 PM 14.0 °F 5.1 °F 10.4 °F 86% 29.91 in 2.5 mi NE 5.8 mph - N/A Snow Light Snow
10:35 PM 14.0 °F 3.9 °F 10.4 °F 86% 29.92 in 1.2 mi ENE 6.9 mph - N/A Snow Light Snow
10:55 PM 14.0 °F 8.2 °F 10.4 °F 86% 29.92 in 1.0 mi ENE 3.5 mph - N/A Snow Snow
11:15 PM 12.2 °F 4.3 °F 10.4 °F 92% 29.92 in 1.5 mi NE 4.6 mph - N/A Snow Light Snow
11:35 PM 12.2 °F 2.9 °F 10.4 °F 92% 29.91 in 1.5 mi ENE 5.8 mph - N/A Snow Light Snow
11:55 PM 12.2 °F 2.9 °F 8.6 °F 85% 29.91 in 1.5 mi ENE 5.8 mph - N/A Snow Light Snow